1st Responders/1st Detectors/Storm Spotters Weather Summary for Clay County, KY

Forecast Maps


Reg. NEXRAD Animation


National Fire Danger: Day 1 & 2 Map

Current NWS Watch/Warnings

SPC Convective Day 1 Outlook


Day 2 Outlook

(Click images to enlarge|Page will refresh every 5 minutes)
UK Ag. Weather Center Desktop Severe Weather Service[HERE]
Clay County, KY Hazardous Weather Outlook Webcast
(9 AM to 9 PM Mon-Fri)
[Fast]
[Dial-up]


UKAWC 1st Detectors/1st Responders Precision Weather Forecast For CLAY County, Kentucky
(based on the NWS County Digital Forecast)

ISSUED AT 02:00 UTC ON TUESDAY JUN 19 2018
DAY MON TUESDAY
EDT 3HR 11P MIDN 1A 2A 3A 4A 5A 6A 7A 8A 9A 10A 11A NOON 1P 2P 3P 4P 5P 6P 7P
MAX/MIN -- -- -- -- -- -- -- -- -- 70° -- -- -- -- -- -- -- -- -- -- 88°
TEMP 76° 74° 74° 72° 72° 70° 70° 70° 70° 72° 74° 79° 83° 86° 88° 88° 88° 88° 88° 86° 85°
SKY COVER 20% 18% 15% 13% 18% 23% 28% 32% 35% 38% 40% 43% 45% 47% 48% 50% 47% 44% 41% 41% 42%
Clouds
DEW PT 70° 70° 70° 70° 70° 70° 70° 70° 70° 70° 70° 70° 68° 68° 68° 68° 68° 68° 68° 70° 70°
RH 81% 84% 87% 89% 93% 96% 96% 100% 99% 93% 84% 71% 60% 55% 53% 51% 52% 52% 53% 56% 60%
POP 12HR -- -- -- -- -- -- -- -- -- 15% -- -- -- -- -- -- -- -- -- -- --
RAIN/SNOW (liq.equ) -- -- -- 0.01in -- -- -- -- -- 0.00in -- -- -- -- -- 0.01in -- -- -- -- --
SNOWFALL -- -- -- 0in -- -- -- -- -- 0in -- -- -- -- -- 0in -- -- -- -- --
WIND SPEED(MPH) 1 1 1 1 1 1 1 1 1 1 2 2 5 5 6 6 6 6 6 5 5
WIND Gust(MPH) 5 5 5 5 5 5 5 5 5 5 6 7 8 8 8 8 8 8 8 7 7
WIND DIR SW SW SW SW SW SW SW SW SW W W W W W W W W W W W W
DEW Lgt Dew Mod Dew Mod Dew Mod Dew Mod Dew Mod Dew Mod Dew Mod Dew Mod Dew Mod Dew Mod Dew Lgt Dew -- -- -- -- -- -- -- -- --
HeatIndex 76 74 74 72 72 70 70 70 70 72 74 83 87 91 92 93 93 93 92 92 89
Rain Showers -- -- -- -- -- -- -- -- -- -- -- -- Slight Chance Slight Chance Slight Chance Chance Chance Chance Chance Chance Chance
Thunder Storm -- -- -- -- -- -- -- -- -- -- -- -- Slight Chance Slight Chance Slight Chance Chance Chance Chance Chance Chance Chance
WIND CHILL -- -- -- -- -- -- -- -- -- -- -- -- -- -- -- -- -- -- -- -- --
SPRAY COND
DRY COND
LIVESTOCK HEATSTRESS 74.20 72.66 72.91 71.20 71.49 69.75 69.75 70.00 69.94 71.49 72.66 75.78 77.68 79.27 80.45 80.13 80.29 80.29 80.45 79.42 79.24



DAY WEDNESDAY THURSDAY FRIDAY SATURDAY SUNDAY MONDAY
EDT 6HR 8P 9P 10P 11P MIDN 1A 2A 3A 4A 5A 6A 7A 8A 9A 10A 11A 2P 5P 8P 11P 2A 5A 8A 11A 2P 5P 8P 2A 8A 2P 8P 2A 8A 2P 8P 2A 8A 2P 8P 2A 8A 2P 8P
MAX/MIN -- -- -- -- -- -- -- -- -- -- -- -- 68° -- -- -- -- 86° -- -- -- -- 70° -- -- 83° -- -- 67° 83° -- -- 67° 85° -- -- 67° 86° -- -- 68° 85° --
TEMP 83° 79° 76° 74° 72° 70° 70° 70° 70° 70° 68° 68° 70° 74° 79° 83° 86° 85° 79° 74° 72° 70° 72° 79° 83° 81° 77° 70° 68° 83° 77° 68° 68° 83° 79° 68° 70° 85° 79° 70° 70° 83° 77°
SKY COVER 42% 42% 42% 42% 42% 42% 42% 43% 45% 46% 48% 49% 56% 60% 58% 57% 59% 56% 55% 69% 76% 79% 83% 91% 91% 90% 86% 83% 84% 83% 74% 66% 73% 61% 53% 46% 66% 64% 57% 54% 60% 60% 59%
Clouds
DEW PT 70° 70° 70° 70° 70° 70° 70° 70° 70° 70° 68° 68° 68° 68° 68° 68° 67° 67° 67° 68° 68° 67° 68° 70° 70° 70° 70° 67° 67° 70° 70° 67° 67° 67° 67° 67° 67° 70° 70° 68° 68° 70° 70°
RH 64% 71% 78% 87% 93% 96% 96% 100% 100% 100% 100% 99% 93% 84% 71% 62% 51% 54% 66% 82% 90% 93% 90% 73% 67% 69% 76% 92% 96% 65% 76% 96% 93% 58% 68% 92% 90% 59% 71% 92% 93% 67% 78%
POP 12HR 34% -- -- -- -- -- -- -- -- -- -- -- 26% -- -- -- -- -- 37% -- -- -- 41% -- -- -- 69% -- 48% -- 52% -- 46% -- 37% -- 28% -- 37% -- 39% -- 43%
RAIN/SNOW (liq.equ) 0.01in -- -- -- -- -- 0.04in -- -- -- -- -- 0.00in -- -- -- 0.00in -- 0.02in -- 0.02in -- 0.03in -- 0.16in -- 0.26in -- -- -- -- -- -- -- -- -- -- -- -- -- -- -- --
SNOWFALL 0in -- -- -- -- -- 0in -- -- -- -- -- 0in -- -- -- 0in -- 0in -- 0in -- 0in -- 0in -- 0in -- -- -- -- -- -- -- -- -- -- -- -- -- -- -- --
WIND SPEED(MPH) 2 2 2 2 2 2 2 2 2 2 2 2 2 5 5 6 6 7 5 2 2 2 2 2 5 2 1 1 2 6 5 5 6 7 7 5 5 6 5 2 2 5 2
WIND DIR W W SW SW SW SW SW SW SW SW SW SW SW SW W W W W W W SW W SW W W SW SW S S S S S S SW SW SW SW SW SW SW W W NW
HeatIndex 87 83 76 74 72 70 70 70 70 70 68 68 70 74 79 86 89 89 82 74 72 70 72 79 87 86 77 70 68 88 77 68 68 87 79 68 70 90 83 70 70 87 77
Rain Showers Chance Slight Chance Slight Chance Slight Chance Slight Chance Slight Chance -- -- -- -- -- -- Slight Chance Slight Chance Slight Chance Chance Chance Chance Chance Chance Chance Chance Chance Likely Likely Likely Chance Chance Chance Chance Chance Chance Chance Chance Slight Chance Slight Chance Chance Chance Chance Chance Chance Chance Chance
Thunder Storm Chance Slight Chance Slight Chance Slight Chance Slight Chance Slight Chance -- -- -- -- -- -- -- -- -- -- Slight Chance Chance Chance -- -- -- -- Chance Chance Chance Slight Chance -- Slight Chance Chance Chance -- Slight Chance Chance -- -- Slight Chance Chance Slight Chance Slight Chance Slight Chance Chance --
WIND CHILL -- -- -- -- -- -- -- -- -- -- -- -- -- -- -- -- -- -- -- -- -- -- -- -- -- -- -- -- -- -- -- -- -- -- -- -- -- -- -- -- -- -- --
SPRAY COND
DRY COND
LIVESTOCK HEATSTRESS 78.21 75.78 73.92 72.91 71.49 69.75 69.75 70.00 70.00 70.00 68.00 67.95 69.57 72.66 75.78 77.94 78.67 78.37 75.22 72.50 71.27 69.57 71.27 76.00 78.61 77.21 74.60 69.51 67.80 78.34 74.60 67.80 67.65 77.41 75.44 67.60 69.38 79.09 75.78 69.51 69.57 78.61 74.80

Click on individual weather variable above in left-hand column (ie., TEMP, RH, QPF 12HR) to view state forecast maps






NWS 48 Hr. Forecast Maps,

Regional Hourly Observations For CLAY County, Kentucky
Issued at 1000 PM EDT MON JUN 18 2018
SOUTHEAST KENTUCKY
  
CITY           SKY/WX    TMP DP  RH WIND       PRES   REMARKS
JACKSON        FAIR      78  68  71 CALM      30.07R                  
LONDON         FAIR      81  71  71 W3        30.08R                  
SOMERSET       FAIR      79  70  73 CALM      30.08R                  
MIDDLESBORO    FAIR      79  71  74 CALM      30.09R                  
MONTICELLO     FAIR      77  73  87 NE8       30.09R                  


Current NOWCAST not available:
Nowcasts are not issued routinely during fair weather. Only when
precipitation or other significant weather is occuring in this county will these
forecasts be issued. Currently, there is no short term forecast in effect.


Fire Weather Forecast For CLAY County, KY
Provided by the National Weather Service:

Issued at: Mon Jun 18 22:05:02 EDT 2018

Clay City, Stanton, Frenchburg, Brodhead, Mount Vernon, McKee, 
Annville, Burnside, Somerset, London, Monticello, Stearns, 
Whitley City, Corbin, Williamsburg, Barbourville, Middlesboro, 
Pineville, Cumberland, Harlan, Sandy Hook, West Liberty, 
Paintsville, Campton, Salyersville, Prestonsburg, Wheelwright, 
Beattyville, Jackson, Hindman, Pippa Passes, Booneville, Hazard, 
Manchester, Hyden, Jenkins, Whitesburg, Inez, Coal Run, 
Elkhorn City, Pikeville, and South Williamson
700 AM EDT Mon Jun 18 2018

                      Today        Tonight      Tue          

Cloud Cover           MClear       MClear       PCldy        
Chance precip (%)     20           0            40           
Precip type           tstms        None         tstms        
Temp (24H TREND)      89-92 (+1)   64-73 (+5)   87-90        
Rh % (24H TREND)      46-49 (+5)   90-100 (+2)  49-52        
20ftwnd-AM(mph)       Lgt/Var                   Lgt/Var      
20ftwnd-PM(mph)       W 2-6        Lgt/Var      W 3-7        
Precip duration       1                         1            
Precip begin                                                 
Precip end                                                   
Precip amount         0.00         0.00         0.07         
LAL                   3            1            3            
Haines Index (MID)    3                         3            
Mixing hgt(ft-AGL)    6700                      6600         
Transport wnd (mph)   W  6                      W 13         
Vent rate (kt-ft)     33133                     71438        
ADI Early             32 Fair      4 Very Poor  59 Gen Good  
ADI Late              48 Gen Good  11 Poor      65 Good      
Max LVORI Early       6            7            5            
Max LVORI Late        3            8            3            

REMARKS...RANGES OF MIN T EXCEEDING 8 DEGREES & RANGES OF MAX RH        
EXCEEDING 10% INDICATE THE LIKELIHOOD OF THERMAL BELTS. ADI IS        
ATMOSPHERIC DISPERSION INDEX BY LAVDAS. DISPERSION INDEX IS        
MAGNITUDE OF VENT RATE DIVIDED BY 1000.

SPC's Fire Weather Web Tool (Excellent!), SPC's Fire Weather Outlooks, NWS Fire Weather WEB, Fire Danger Class Map,
Keetch-Byram Drought Index, ROMAN Web, Haines Index ,
WFAS's 10-hr Dead Fuel Moist., WFAS's 100-hr Dead Fuel Moist., Probablity of Ignition, Visual blackness Map, Palmer Drought Index, HPC's Rainfall Forecast Maps


Hazardous Weather Outlook For CLAY County, Kentucky
801 PM EDT Mon Jun 18 2018

 DAY ONE  Tonight.

No hazardous weather is expected.

 DAYS TWO THROUGH SEVEN  Tuesday through Sunday.

Thunderstorms will be possible from Tuesday through Sunday, 
especially during the afternoon and evening hours. 

 SPOTTER INFORMATION STATEMENT  

Spotter activation is not anticipated.

Latest CLAY County, Kentucky Watches, Warnings and Advisories.
Additional Drought Info.: UKAWC Drought Page, Kentucky Drought Watch


7-Day Forecast For CLAY County, KY

TONIGHT
Mostly clear. Areas of valley fog late. Lows around 70. Light winds.

TUESDAY
Warm. Mostly sunny. Patchy valley fog early. A slight chance of showers and thunderstorms late in the morning. A chance of showers and thunderstorms in the afternoon. Highs around 90. Light winds. Chance of rain 30 percent.

TUESDAY NIGHT
Partly cloudy. A 20 percent chance of showers and thunderstorms in the evening. Areas of valley fog late. Lows around 70. Light winds.

WEDNESDAY
Partly sunny. A chance of showers in the morning, then a chance of showers and thunderstorms in the afternoon. Highs in the upper 80s. Light winds. Chance of rain 40 percent.

WEDNESDAY NIGHT
Mostly cloudy. A chance of showers and thunderstorms in the evening, then a chance of showers late. Patchy valley fog late. Lows in the upper 60s. Light winds. Chance of rain 40 percent.

THURSDAY
Cloudy with showers likely and a chance of thunderstorms. Highs in the lower 80s. Chance of rain 70 percent.

THURSDAY NIGHT
Mostly cloudy with a chance of showers and a slight chance of thunderstorms. Areas of valley fog. Lows in the upper 60s. Chance of rain 50 percent.

FRIDAY
Mostly cloudy with a 50 percent chance of showers and thunderstorms. Highs in the mid 80s.

FRIDAY NIGHT
Mostly cloudy with a 50 percent chance of showers and thunderstorms. Areas of valley fog. Lows in the upper 60s.

SATURDAY
Partly sunny with a 40 percent chance of showers and thunderstorms. Highs in the mid 80s.

SATURDAY NIGHT
Mostly cloudy with a 30 percent chance of showers. Areas of valley fog. Lows in the upper 60s.

SUNDAY
Partly sunny with a 40 percent chance of showers and thunderstorms. Highs in the upper 80s.

SUNDAY NIGHT
Mostly cloudy with a chance of showers and a slight chance of thunderstorms. Areas of valley fog. Lows in the upper 60s. Chance of rain 40 percent.

MONDAY
Partly sunny with a 40 percent chance of showers and thunderstorms. Highs in the upper 80s.

Ag Weather Center, Department of Biosystems & Agricultural Engineering, University of Kentucky